Flag for Taiwan Weather past 2 weeks in Kaohsiung, Taiwan

Now
63 °F

Passing clouds.


Feels Like: 63 °F
Forecast: 62 / 74 °F
Wind: 8 mph from North

Location: Kaohsiung International Airport

Current Time: Jan 30, 2015 at 11:52:08 PM

Latest Report: Jan 30, 2015 at 11:00 PM


Visibility: N/A

Pressure: 30.15 "Hg

Humidity: 77%

Dew point: 55 °F

Location of KaohsiungLocation

Historic Weather in Kaohsiung — Graph

°F

Kaohsiung temperature yesterday

Maximum temperature yesterday: 79 °F (at 12:00 PM)
Minimum temperature yesterday: 64 °F (at 2:00 AM)
Average temperature yesterday: 69 °F

Past Weeks' High & Low Weather Summary

 TemperatureHumidityPressure
High82 °F (Jan 26, 2:30 PM)100% (Jan 27, 3:00 AM)30.24 "Hg (Jan 27, 3:00 AM)
Low52 °F (Jan 24, 6:30 AM)19% (Jan 22, 4:00 PM)29.95 "Hg (Jan 27, 2:00 PM)
Average68 °F68%30.09 "Hg
* Reported Jan 15 10:00 PM — Jan 30 10:30 PM, Kaohsiung, Weather by CustomWeather, © 2014

Note: Actual official high and low records may vary slightly from our data, if they occured in-between our weather recording intervals... More about our weather records

Advertising

Kaohsiung weather history for previous 24 hours

 ConditionsComfort  
Time TempWeatherWind HumidityBarometerVisibility
10:30 PM
Jan 30
63 °FPassing clouds.10 mph83%30.18 "Hg5 mi
10:00 PM63 °FPassing clouds.9 mph83%30.15 "Hg5 mi
9:30 PM64 °FPassing clouds.8 mph78%30.15 "Hg5 mi
9:00 PM64 °FPassing clouds.12 mph78%30.15 "Hg4 mi
8:30 PM66 °FPassing clouds.10 mph78%30.15 "Hg5 mi
8:00 PM66 °FPassing clouds.10 mph78%30.15 "Hg5 mi
7:30 PM68 °FPassing clouds.9 mph78%30.12 "Hg4 mi
7:00 PM72 °FPassing clouds.8 mph73%30.12 "Hg4 mi
6:30 PM72 °FPassing clouds.9 mph69%30.12 "Hg4 mi
6:00 PM72 °FPassing clouds.7 mph65%30.09 "Hg4 mi
5:30 PM73 °FPartly sunny.8 mph65%30.09 "Hg4 mi
5:00 PM73 °FBroken clouds.9 mph65%30.09 "Hg4 mi
4:30 PM75 °FBroken clouds.7 mph61%30.07 "Hg4 mi
4:00 PM75 °FPartly sunny.9 mph61%30.07 "Hg4 mi
3:30 PM75 °FPartly sunny.9 mph65%30.07 "Hg4 mi
3:00 PM75 °FPartly sunny.9 mph61%30.07 "Hg3 mi
2:30 PM75 °FPartly sunny.10 mph61%30.07 "Hg3 mi
2:00 PM77 °FPartly sunny.9 mph61%30.07 "Hg3 mi
1:30 PM77 °FScattered clouds.8 mph61%30.07 "Hg3 mi
1:00 PM75 °FHaze.9 mph65%30.09 "Hg3 mi
12:30 PM77 °FHaze.9 mph61%30.09 "Hg2 mi
12:00 PM75 °FHaze.9 mph65%30.09 "Hg3 mi
11:30 AM73 °FHaze.8 mph69%30.12 "Hg3 mi
11:00 AM73 °FHaze.8 mph69%30.12 "Hg2 mi
10:30 AM72 °FHaze.8 mph69%30.12 "Hg3 mi
10:00 AM70 °FHaze.8 mph78%30.15 "Hg2 mi
9:30 AM68 °FScattered clouds.9 mph83%30.15 "Hg1 mi
9:00 AM66 °FFog.10 mph83%30.12 "Hg1 mi
8:30 AM66 °FFog.9 mph83%30.12 "Hg1 mi
8:00 AM64 °FFog.8 mph88%30.09 "Hg1 mi
7:30 AM63 °FFog.7 mph94%30.09 "Hg1 mi
7:00 AM63 °FFog.8 mph94%30.09 "Hg1 mi
6:30 AM63 °FFog.7 mph94%30.07 "Hg1 mi
6:00 AM63 °FFog.9 mph94%30.07 "Hg1 mi
5:00 AM63 °FFog.8 mph94%30.04 "Hg1 mi
4:00 AM64 °FFog.8 mph88%30.04 "Hg1 mi
3:00 AM64 °FFog.6 mph88%30.04 "Hg1 mi
2:00 AM64 °FFog.6 mph88%30.04 "Hg1 mi
1:00 AM64 °FFog.6 mph88%30.07 "Hg1 mi
12:00 AM64 °FFog.7 mph88%30.07 "Hg2 mi
11:48 PM
Jan 29
64 °FFog.7 mph88%30.07 "Hg2 mi
11:30 PM64 °FFog.8 mph88%30.07 "Hg2 mi
11:00 PM64 °FFog.7 mph88%30.09 "Hg3 mi
Weather by CustomWeather, © 2014

See weather overviewHow to use our weather pages